Flag for U.S.A. Weather past 2 weeks in Grand Rapids, Michigan, U.S.A.

Now
88 °F

Partly sunny.


Feels Like: 88 °F
Forecast: 66 / 89 °F
Wind: 10 mph from Southeast

Location: Kent County International Airport

Current Time: Jul 28, 2015 at 6:22:22 PM

Latest Report: Jul 28, 2015 at 4:53 PM


Visibility: 10 mi

Pressure: 29.96 "Hg

Humidity: 40%

Dew point: 61 °F

Location of Grand RapidsLocation

Historic Weather in Grand Rapids — Graph

°F

Grand Rapids temperature yesterday

Maximum temperature yesterday: 88 °F (at 3:53 PM)
Minimum temperature yesterday: 64 °F (at 6:53 AM)
Average temperature yesterday: 77 °F

Past Weeks' High & Low Weather Summary

 TemperatureHumidityPressure
High88 °F (Jul 27, 3:53 PM)100% (Jul 14, 3:53 AM)30.08 "Hg (Jul 14, 3:53 AM)
Low53 °F (Jul 16, 5:53 AM)33% (Jul 21, 3:53 PM)29.48 "Hg (Jul 14, 4:53 AM)
Average73 °F70%29.89 "Hg
* Reported Jul 13 4:53 PM — Jul 28 4:53 PM, Grand Rapids, Weather by CustomWeather, © 2015

Note: Actual official high and low records may vary slightly from our data, if they occured in-between our weather recording intervals... More about our weather records

Advertising

Grand Rapids weather history for previous 24 hours

 ConditionsComfort  
Time TempWeatherWind HumidityBarometerVisibility
4:53 PM
Tue, Jul 28
88 °FPartly sunny.10 mph40%29.96 "Hg10 mi
3:53 PM88 °FPartly sunny.8 mph38%29.98 "Hg10 mi
2:53 PM88 °FPartly sunny.7 mph38%29.99 "Hg10 mi
1:53 PM87 °FPartly sunny.8 mph37%30.00 "Hg10 mi
12:53 PM86 °FPartly sunny.9 mph42%30.02 "Hg10 mi
11:53 AM85 °FScattered clouds.13 mph45%30.03 "Hg9 mi
10:53 AM83 °FPassing clouds.10 mph53%30.01 "Hg10 mi
9:53 AM80 °FPassing clouds.7 mph56%30.03 "Hg10 mi
8:53 AM74 °FPassing clouds.5 mph74%30.03 "Hg9 mi
7:53 AM69 °FPassing clouds.3 mph87%30.03 "Hg9 mi
6:53 AM65 °FPassing clouds.No wind91%30.03 "Hg10 mi
5:53 AM66 °FClear.No wind90%30.01 "Hg10 mi
4:53 AM67 °FClear.3 mph90%30.02 "Hg10 mi
3:53 AM68 °FClear.3 mph90%30.01 "Hg10 mi
2:53 AM69 °FClear.No wind90%30.02 "Hg10 mi
1:53 AM71 °FClear.5 mph87%30.02 "Hg10 mi
12:53 AM71 °FClear.No wind84%30.03 "Hg10 mi
11:53 PM
Mon, Jul 27
74 °FPassing clouds.No wind79%30.03 "Hg10 mi
10:53 PM77 °FClear.No wind74%30.02 "Hg10 mi
9:53 PM76 °FPassing clouds.3 mph74%30.00 "Hg10 mi
8:53 PM83 °FScattered clouds.3 mph51%30.00 "Hg10 mi
7:53 PM84 °FPartly sunny.5 mph48%29.98 "Hg10 mi
6:53 PM86 °FScattered clouds.7 mph42%29.99 "Hg10 mi
Weather by CustomWeather, © 2015

See weather overviewHow to use our weather pages